| time (UTC) | temp F | wind direction | speed knots | gust knots | rain 1hr in | rain 24hr in | rain mn in | humidity % | barometer mb |
| 20260507095346 | 52 | 329 | 0.9 | 2.6 | 0.00 | 0.00 | 0.00 | 74 | 1020.8 |
| 20260507094827 | 52 | 304 | 0.9 | 2.6 | 0.00 | 0.00 | 0.00 | 76 | 1020.9 |
| 20260507094328 | 52 | 295 | 0.9 | 1.7 | 0.00 | 0.00 | 0.00 | 75 | 1020.9 |
| 20260507093827 | 52 | 313 | 0.0 | 1.7 | 0.00 | 0.00 | 0.00 | 76 | 1020.9 |
| 20260507093331 | 52 | 311 | 0.9 | 1.7 | 0.00 | 0.00 | 0.00 | 76 | 1021.0 |
| 20260507092833 | 53 | 307 | 0.9 | 1.7 | 0.00 | 0.00 | 0.00 | 76 | 1021.0 |
| 20260507092333 | 53 | 309 | 0.0 | 1.7 | 0.00 | 0.00 | 0.00 | 76 | 1021.1 |
| 20260507091856 | 53 | 309 | 0.0 | 1.7 | 0.00 | 0.00 | 0.00 | 76 | 1021.1 |
| 20260507091339 | 53 | 305 | 0.0 | 1.7 | 0.00 | 0.00 | 0.00 | 76 | 1021.2 |
| 20260507090840 | 53 | 311 | 0.9 | 1.7 | 0.00 | 0.00 | 0.00 | 77 | 1021.2 |
| 20260507090342 | 53 | 280 | 0.0 | 1.7 | 0.00 | 0.00 | 0.00 | 77 | 1021.2 |
| 20260507085825 | 53 | 271 | 0.9 | 1.7 | 0.00 | 0.00 | 0.00 | 77 | 1021.2 |
| 20260507085347 | 53 | 301 | 0.0 | 1.7 | 0.00 | 0.00 | 0.00 | 78 | 1021.1 |
| 20260507084827 | 53 | 315 | 0.0 | 1.7 | 0.00 | 0.00 | 0.00 | 77 | 1021.2 |
| 20260507084328 | 53 | 315 | 0.0 | 1.7 | 0.00 | 0.00 | 0.00 | 78 | 1021.1 |
| 20260507083835 | 53 | 299 | 0.0 | 1.7 | 0.00 | 0.00 | 0.00 | 77 | 1021.2 |
| 20260507083344 | 53 | 290 | 0.0 | 1.7 | 0.00 | 0.00 | 0.00 | 77 | 1021.1 |
| 20260507082826 | 53 | 294 | 0.0 | 2.6 | 0.00 | 0.00 | 0.00 | 77 | 1021.1 |
| 20260507082329 | 53 | 294 | 0.0 | 2.6 | 0.00 | 0.00 | 0.00 | 77 | 1021.2 |
| 20260507081852 | 53 | 319 | 0.9 | 1.7 | 0.00 | 0.00 | 0.00 | 77 | 1021.1 |
| 20260507081342 | 53 | 313 | 0.0 | 1.7 | 0.00 | 0.00 | 0.00 | 77 | 1021.1 |
| 20260507080841 | 54 | 311 | 0.9 | 1.7 | 0.00 | 0.00 | 0.00 | 76 | 1021.1 |
| 20260507080403 | 54 | 283 | 0.0 | 1.7 | 0.00 | 0.00 | 0.00 | 77 | 1021.1 |
| 20260507075844 | 54 | 283 | 0.0 | 1.7 | 0.00 | 0.00 | 0.00 | 77 | 1021.1 |
| 20260507075403 | 54 | 273 | 0.9 | 1.7 | 0.00 | 0.00 | 0.00 | 76 | 1021.1 |
| 20260507074844 | 54 | 329 | 0.0 | 1.7 | 0.00 | 0.00 | 0.00 | 76 | 1021.1 |
| 20260507074346 | 54 | 330 | 0.0 | 1.7 | 0.00 | 0.00 | 0.00 | 76 | 1021.1 |
| 20260507073845 | 54 | 330 | 0.0 | 2.6 | 0.00 | 0.00 | 0.00 | 77 | 1021.1 |
| 20260507073329 | 54 | 325 | 0.0 | 1.7 | 0.00 | 0.00 | 0.00 | 77 | 1021.1 |
| 20260507072833 | 54 | 320 | 0.0 | 1.7 | 0.00 | 0.00 | 0.00 | 77 | 1021.0 |
| 20260507072357 | 54 | 320 | 0.0 | 1.7 | 0.00 | 0.00 | 0.00 | 77 | 1021.0 |
| 20260507071837 | 54 | 320 | 0.0 | 1.7 | 0.00 | 0.00 | 0.00 | 77 | 1021.0 |
| 20260507071336 | 54 | 320 | 0.0 | 1.7 | 0.00 | 0.00 | 0.00 | 77 | 1021.0 |
| 20260507070836 | 54 | 321 | 0.0 | 1.7 | 0.00 | 0.00 | 0.00 | 77 | 1020.9 |
| 20260507070358 | 54 | 317 | 0.9 | 1.7 | 0.00 | 0.00 | 0.00 | 77 | 1021.0 |
| 20260507065833 | 54 | 316 | 0.9 | 1.7 | 0.00 | 0.00 | 0.00 | 77 | 1021.0 |
| 20260507065336 | 54 | 311 | 0.0 | 1.7 | 0.00 | 0.00 | 0.00 | 77 | 1020.9 |
| 20260507064835 | 54 | 311 | 0.9 | 1.7 | 0.00 | 0.00 | 0.00 | 77 | 1021.0 |
| 20260507064337 | 54 | 311 | 0.9 | 1.7 | 0.00 | 0.00 | 0.00 | 78 | 1021.0 |
| 20260507063840 | 53 | 308 | 0.0 | 1.7 | 0.00 | 0.00 | 0.00 | 77 | 1021.0 |
| 20260507063341 | 53 | 301 | 0.0 | 1.7 | 0.00 | 0.00 | 0.00 | 77 | 1021.0 |
| 20260507062841 | 53 | 298 | 0.9 | 1.7 | 0.00 | 0.00 | 0.00 | 78 | 1021.1 |
| 20260507062341 | 53 | 295 | 0.0 | 2.6 | 0.00 | 0.00 | 0.00 | 78 | 1021.0 |
| 20260507061825 | 53 | 320 | 0.9 | 2.6 | 0.00 | 0.00 | 0.00 | 78 | 1021.0 |
| 20260507061328 | 53 | 293 | 0.9 | 1.7 | 0.00 | 0.00 | 0.00 | 78 | 1021.1 |
| 20260507060829 | 53 | 299 | 0.0 | 1.7 | 0.00 | 0.00 | 0.00 | 79 | 1021.1 |
| 20260507060351 | 53 | 299 | 0.0 | 1.7 | 0.00 | 0.00 | 0.00 | 78 | 1021.1 |
| 20260507055833 | 53 | 296 | 0.0 | 1.7 | 0.00 | 0.00 | 0.00 | 78 | 1021.1 |
| 20260507055334 | 53 | 296 | 0.9 | 1.7 | 0.00 | 0.00 | 0.00 | 78 | 1021.1 |
| 20260507054834 | 53 | 320 | 0.0 | 1.7 | 0.00 | 0.00 | 0.00 | 78 | 1021.1 |
| 20260507054333 | 54 | 320 | 0.0 | 1.7 | 0.00 | 0.00 | 0.00 | 77 | 1021.1 |
| 20260507053838 | 54 | 320 | 0.0 | 1.7 | 0.00 | 0.00 | 0.00 | 77 | 1021.0 |
| 20260507053344 | 54 | 319 | 0.9 | 1.7 | 0.00 | 0.00 | 0.00 | 77 | 1021.1 |
| 20260507052847 | 54 | 318 | 0.9 | 1.7 | 0.00 | 0.00 | 0.00 | 76 | 1021.1 |
| 20260507052347 | 54 | 319 | 0.0 | 1.7 | 0.00 | 0.00 | 0.00 | 76 | 1021.1 |
| 20260507051828 | 54 | 318 | 0.9 | 1.7 | 0.00 | 0.00 | 0.00 | 76 | 1021.1 |
| 20260507051328 | 55 | 312 | 0.9 | 1.7 | 0.00 | 0.00 | 0.00 | 76 | 1021.2 |
| 20260507050848 | 55 | 330 | 0.0 | 1.7 | 0.00 | 0.00 | 0.00 | 75 | 1021.1 |
| 20260507050330 | 55 | 321 | 0.0 | 1.7 | 0.00 | 0.00 | 0.00 | 75 | 1021.1 |
| 20260507045829 | 55 | 339 | 0.9 | 2.6 | 0.00 | 0.00 | 0.00 | 75 | 1021.1 |
| 20260507045330 | 55 | 325 | 0.0 | 2.6 | 0.00 | 0.00 | 0.00 | 75 | 1021.2 |
| 20260507044833 | 55 | 333 | 0.0 | 2.6 | 0.00 | 0.00 | 0.00 | 75 | 1021.1 |
| 20260507044334 | 55 | 334 | 0.9 | 2.6 | 0.00 | 0.00 | 0.00 | 74 | 1021.1 |
| 20260507043842 | 55 | 325 | 1.7 | 2.6 | 0.00 | 0.00 | 0.00 | 74 | 1021.1 |
| 20260507043403 | 55 | 334 | 0.9 | 2.6 | 0.00 | 0.00 | 0.00 | 74 | 1021.1 |
| 20260507042840 | 56 | 318 | 0.9 | 3.5 | 0.00 | 0.00 | 0.00 | 74 | 1021.1 |
| 20260507042403 | 56 | 318 | 1.7 | 3.5 | 0.00 | 0.00 | 0.00 | 74 | 1021.1 |
| 20260507041823 | 56 | 328 | 0.9 | 3.5 | 0.00 | 0.00 | 0.00 | 74 | 1021.0 |
| 20260507041330 | 56 | 317 | 0.9 | 3.5 | 0.00 | 0.00 | 0.00 | 74 | 1021.0 |
| 20260507040909 | 56 | 327 | 1.7 | 3.5 | 0.00 | 0.00 | 0.00 | 73 | 1021.0 |
| 20260507040349 | 56 | 326 | 0.9 | 3.5 | 0.00 | 0.00 | 0.00 | 74 | 1021.0 |
| 20260507035827 | 57 | 330 | 0.9 | 2.6 | 0.00 | 0.00 | 0.00 | 74 | 1020.9 |
| 20260507035352 | 57 | 328 | 0.0 | 2.6 | 0.00 | 0.00 | 0.00 | 73 | 1020.9 |
| 20260507034838 | 57 | 328 | 0.9 | 4.3 | 0.00 | 0.00 | 0.00 | 74 | 1020.8 |
| 20260507034339 | 57 | 331 | 0.9 | 4.3 | 0.00 | 0.00 | 0.00 | 73 | 1020.8 |
| 20260507033839 | 57 | 319 | 0.0 | 2.6 | 0.00 | 0.00 | 0.00 | 74 | 1020.7 |
| 20260507033341 | 57 | 315 | 0.9 | 3.5 | 0.00 | 0.00 | 0.00 | 74 | 1020.6 |
| 20260507032839 | 57 | 322 | 0.0 | 2.6 | 0.00 | 0.00 | 0.00 | 73 | 1020.5 |
| 20260507032340 | 58 | 320 | 1.7 | 2.6 | 0.00 | 0.00 | 0.00 | 74 | 1020.5 |
| 20260507031847 | 58 | 340 | 0.0 | 2.6 | 0.00 | 0.00 | 0.00 | 73 | 1020.4 |
| 20260507031326 | 58 | 326 | 0.9 | 2.6 | 0.00 | 0.00 | 0.00 | 73 | 1020.3 |
| 20260507030909 | 58 | 326 | 0.9 | 2.6 | 0.00 | 0.00 | 0.00 | 73 | 1020.3 |
| 20260507030349 | 58 | 305 | 0.9 | 1.7 | 0.00 | 0.00 | 0.00 | 74 | 1020.2 |
| 20260507025847 | 59 | 322 | 0.9 | 1.7 | 0.00 | 0.00 | 0.00 | 73 | 1020.1 |
| 20260507025347 | 59 | 332 | 0.9 | 2.6 | 0.00 | 0.00 | 0.00 | 74 | 1020.0 |
| 20260507024846 | 59 | 302 | 0.9 | 2.6 | 0.00 | 0.00 | 0.00 | 73 | 1019.9 |
| 20260507024405 | 59 | 323 | 0.9 | 2.6 | 0.00 | 0.00 | 0.00 | 73 | 1019.9 |
| 20260507023842 | 59 | 328 | 1.7 | 2.6 | 0.00 | 0.00 | 0.00 | 73 | 1019.9 |
| 20260507023345 | 59 | 332 | 0.9 | 3.5 | 0.00 | 0.00 | 0.00 | 73 | 1019.9 |
| 20260507022907 | 59 | 309 | 1.7 | 3.5 | 0.00 | 0.00 | 0.00 | 73 | 1019.9 |
| 20260507022327 | 59 | 324 | 0.0 | 1.7 | 0.00 | 0.00 | 0.00 | 74 | 1019.8 |
| 20260507021835 | 59 | 320 | 0.9 | 1.7 | 0.00 | 0.00 | 0.00 | 74 | 1019.8 |
| 20260507021342 | 59 | 307 | 0.0 | 2.6 | 0.00 | 0.00 | 0.00 | 73 | 1019.8 |
| 20260507020841 | 59 | 326 | 0.9 | 3.5 | 0.00 | 0.00 | 0.00 | 72 | 1019.8 |
| 20260507020328 | 60 | 322 | 0.9 | 3.5 | 0.00 | 0.00 | 0.00 | 72 | 1019.9 |
| 20260507015844 | 60 | 315 | 1.7 | 3.5 | 0.00 | 0.00 | 0.00 | 71 | 1019.9 |
| 20260507015402 | 60 | 320 | 0.0 | 1.7 | 0.00 | 0.00 | 0.00 | 71 | 1019.9 |
| 20260507014846 | 61 | 316 | 0.9 | 1.7 | 0.00 | 0.00 | 0.00 | 71 | 1019.9 |
| 20260507014328 | 61 | 318 | 0.9 | 1.7 | 0.00 | 0.00 | 0.00 | 71 | 1019.9 |
| 20260507013848 | 61 | 314 | 0.9 | 1.7 | 0.00 | 0.00 | 0.00 | 71 | 1019.9 |
| 20260507013348 | 61 | 302 | 0.9 | 1.7 | 0.00 | 0.00 | 0.00 | 71 | 1019.9 |
| 20260507012846 | 61 | 324 | 0.9 | 3.5 | 0.00 | 0.00 | 0.00 | 71 | 1020.0 |
| 20260507012346 | 62 | 313 | 1.7 | 3.5 | 0.00 | 0.00 | 0.00 | 70 | 1020.0 |
| 20260507011906 | 62 | 315 | 0.9 | 2.6 | 0.00 | 0.00 | 0.00 | 70 | 1020.0 |
| 20260507011345 | 62 | 318 | 0.9 | 2.6 | 0.00 | 0.00 | 0.00 | 70 | 1019.9 |
| 20260507010342 | 62 | 324 | 1.7 | 4.3 | 0.00 | 0.00 | 0.00 | 69 | 1019.9 |
| 20260507005840 | 63 | 328 | 0.9 | 1.7 | 0.00 | 0.00 | 0.00 | 70 | 1019.9 |
| 20260507005340 | 63 | 323 | 0.9 | 2.6 | 0.00 | 0.00 | 0.00 | 68 | 1020.0 |
| 20260507004841 | 63 | 328 | 0.9 | 2.6 | 0.00 | 0.00 | 0.00 | 69 | 1019.9 |
| 20260507004404 | 64 | 303 | 0.0 | 2.6 | 0.00 | 0.00 | 0.00 | 68 | 1019.8 |
| 20260507003843 | 64 | 298 | 0.9 | 2.6 | 0.00 | 0.00 | 0.00 | 70 | 1019.9 |
| 20260507003344 | 64 | 315 | 0.9 | 1.7 | 0.00 | 0.00 | 0.00 | 67 | 1019.7 |
| 20260507002847 | 64 | 318 | 0.9 | 2.6 | 0.00 | 0.00 | 0.00 | 68 | 1019.8 |
| 20260507002337 | 64 | 330 | 1.7 | 2.6 | 0.00 | 0.00 | 0.00 | 69 | 1019.7 |
| 20260507001841 | 64 | 326 | 0.9 | 2.6 | 0.00 | 0.00 | 0.00 | 69 | 1019.7 |
| 20260507001401 | 64 | 327 | 0.9 | 2.6 | 0.00 | 0.00 | 0.00 | 70 | 1019.7 |
| 20260507000844 | 65 | 298 | 0.9 | 1.7 | 0.00 | 0.00 | 0.00 | 68 | 1019.7 |
| 20260507000406 | 65 | 324 | 0.9 | 1.7 | 0.00 | 0.00 | 0.00 | 70 | 1019.7 |
| 20260506235843 | 65 | 324 | 0.9 | 1.7 | 0.00 | 0.00 | 0.00 | 69 | 1019.7 |
| 20260506235341 | 65 | 325 | 0.0 | 1.7 | 0.00 | 0.00 | 0.00 | 70 | 1019.7 |
| 20260506234840 | 65 | 303 | 0.9 | 1.7 | 0.00 | 0.00 | 0.00 | 69 | 1019.6 |
| 20260506234340 | 65 | 313 | 0.0 | 1.7 | 0.00 | 0.00 | 0.00 | 69 | 1019.7 |
| 20260506233843 | 65 | 312 | 0.9 | 1.7 | 0.00 | 0.00 | 0.00 | 70 | 1019.6 |
| 20260506233402 | 65 | 269 | 0.0 | 1.7 | 0.00 | 0.00 | 0.00 | 70 | 1019.7 |
| 20260506232901 | 65 | 329 | 0.0 | 1.7 | 0.00 | 0.00 | 0.00 | 69 | 1019.7 |
| 20260506232339 | 66 | 320 | 0.0 | 1.7 | 0.00 | 0.00 | 0.00 | 70 | 1019.6 |
| 20260506231859 | 66 | 305 | 0.0 | 1.7 | 0.00 | 0.00 | 0.00 | 70 | 1019.6 |
| 20260506231338 | 65 | 305 | 0.9 | 1.7 | 0.00 | 0.00 | 0.00 | 71 | 1019.7 |
| 20260506230840 | 65 | 53 | 0.0 | 1.7 | 0.00 | 0.00 | 0.00 | 70 | 1019.7 |
| 20260506230345 | 65 | 64 | 0.0 | 1.7 | 0.00 | 0.00 | 0.00 | 70 | 1019.8 |
| 20260506225844 | 65 | 335 | 0.0 | 1.7 | 0.00 | 0.00 | 0.00 | 70 | 1019.8 |
| 20260506225348 | 66 | 335 | 0.0 | 1.7 | 0.00 | 0.00 | 0.00 | 70 | 1019.9 |
| 20260506224848 | 66 | 335 | 0.9 | 1.7 | 0.00 | 0.00 | 0.00 | 68 | 1019.9 |
| 20260506224407 | 66 | 20 | 0.0 | 1.7 | 0.00 | 0.00 | 0.00 | 69 | 1019.9 |
| 20260506223826 | 66 | 18 | 0.0 | 2.6 | 0.00 | 0.00 | 0.00 | 71 | 1020.0 |
| 20260506223329 | 65 | 87 | 0.9 | 2.6 | 0.00 | 0.00 | 0.00 | 71 | 1020.1 |
| 20260506222828 | 65 | 328 | 0.0 | 1.7 | 0.00 | 0.00 | 0.00 | 71 | 1020.1 |
| 20260506222408 | 65 | 312 | 0.0 | 1.7 | 0.00 | 0.00 | 0.00 | 71 | 1020.2 |
| 20260506221847 | 65 | 313 | 0.0 | 1.7 | 0.00 | 0.00 | 0.00 | 70 | 1020.3 |
| 20260506221406 | 65 | 313 | 0.9 | 1.7 | 0.00 | 0.00 | 0.00 | 70 | 1020.3 |
| 20260506220844 | 65 | 318 | 0.0 | 1.7 | 0.00 | 0.00 | 0.00 | 72 | 1020.2 |
| 20260506220406 | 64 | 318 | 0.0 | 1.7 | 0.00 | 0.00 | 0.00 | 71 | 1020.2 |
| 20260506215843 | 64 | 318 | 0.0 | 1.7 | 0.00 | 0.00 | 0.00 | 72 | 1020.2 |
| 20260506215343 | 64 | 318 | 0.0 | 1.7 | 0.00 | 0.00 | 0.00 | 71 | 1020.2 |
| 20260506214907 | 64 | 318 | 0.0 | 1.7 | 0.00 | 0.00 | 0.00 | 70 | 1020.3 |
| 20260506214346 | 65 | 316 | 0.0 | 1.7 | 0.00 | 0.00 | 0.00 | 69 | 1020.2 |
| 20260506213846 | 65 | 316 | 0.0 | 1.7 | 0.00 | 0.00 | 0.00 | 70 | 1020.2 |
| 20260506213328 | 64 | 316 | 0.0 | 1.7 | 0.00 | 0.00 | 0.00 | 69 | 1020.3 |
| 20260506212834 | 65 | 321 | 0.0 | 1.7 | 0.00 | 0.00 | 0.00 | 70 | 1020.3 |
| 20260506212353 | 65 | 318 | 0.9 | 1.7 | 0.00 | 0.00 | 0.00 | 69 | 1020.3 |
| 20260506211832 | 65 | 293 | 0.0 | 1.7 | 0.00 | 0.00 | 0.00 | 70 | 1020.4 |
| 20260506211335 | 65 | 103 | 0.9 | 1.7 | 0.00 | 0.00 | 0.00 | 70 | 1020.4 |
| 20260506210835 | 65 | 359 | 0.0 | 1.7 | 0.00 | 0.00 | 0.00 | 71 | 1020.6 |
| 20260506210336 | 64 | 22 | 0.0 | 1.7 | 0.00 | 0.00 | 0.00 | 71 | 1020.6 |
| 20260506205839 | 64 | 269 | 0.0 | 1.7 | 0.00 | 0.00 | 0.00 | 71 | 1020.6 |
| 20260506205324 | 64 | 254 | 0.0 | 1.7 | 0.00 | 0.00 | 0.00 | 73 | 1020.6 |
| 20260506204831 | 62 | 26 | 0.0 | 1.7 | 0.00 | 0.00 | 0.00 | 75 | 1020.7 |
| 20260506204329 | 64 | 313 | 0.9 | 1.7 | 0.00 | 0.00 | 0.00 | 73 | 1020.7 |
| 20260506203908 | 63 | 76 | 0.0 | 1.7 | 0.00 | 0.00 | 0.00 | 72 | 1020.7 |
| 20260506203408 | 63 | 106 | 0.0 | 1.7 | 0.00 | 0.00 | 0.00 | 74 | 1020.7 |
| 20260506202826 | 63 | 157 | 0.0 | 1.7 | 0.00 | 0.00 | 0.00 | 75 | 1020.7 |
| 20260506202329 | 63 | 160 | 0.0 | 1.7 | 0.00 | 0.00 | 0.00 | 73 | 1020.6 |
| 20260506201847 | 62 | 187 | 0.0 | 1.7 | 0.00 | 0.00 | 0.00 | 74 | 1020.6 |
| 20260506201327 | 62 | 46 | 0.0 | 1.7 | 0.00 | 0.00 | 0.00 | 74 | 1020.6 |
| 20260506200836 | 62 | 64 | 0.9 | 1.7 | 0.00 | 0.00 | 0.00 | 77 | 1020.6 |
| 20260506200343 | 62 | 26 | 0.0 | 1.7 | 0.00 | 0.00 | 0.00 | 75 | 1020.6 |
| 20260506195902 | 61 | 306 | 0.0 | 1.7 | 0.00 | 0.00 | 0.00 | 75 | 1020.6 |
| 20260506195339 | 61 | 74 | 0.0 | 1.7 | 0.00 | 0.00 | 0.00 | 76 | 1020.8 |
| 20260506194840 | 61 | 83 | 0.0 | 1.7 | 0.00 | 0.00 | 0.00 | 75 | 1020.8 |
| 20260506194339 | 60 | 81 | 0.0 | 1.7 | 0.00 | 0.00 | 0.00 | 76 | 1020.8 |
| 20260506193839 | 60 | 81 | 0.0 | 1.7 | 0.00 | 0.00 | 0.00 | 78 | 1020.9 |
| 20260506193337 | 60 | 280 | 0.0 | 1.7 | 0.00 | 0.00 | 0.00 | 77 | 1021.0 |
| 20260506192836 | 60 | 255 | 0.0 | 1.7 | 0.00 | 0.00 | 0.00 | 77 | 1021.0 |
| 20260506192356 | 60 | 255 | 0.0 | 1.7 | 0.00 | 0.00 | 0.00 | 76 | 1021.0 |
| 20260506191835 | 60 | 255 | 0.0 | 1.7 | 0.00 | 0.00 | 0.00 | 77 | 1021.0 |
| 20260506191354 | 60 | 243 | 0.0 | 1.7 | 0.00 | 0.00 | 0.00 | 76 | 1021.0 |
| 20260506190833 | 60 | 236 | 0.9 | 1.7 | 0.00 | 0.00 | 0.00 | 74 | 1020.9 |
| 20260506190332 | 60 | 218 | 0.9 | 1.7 | 0.00 | 0.00 | 0.00 | 77 | 1020.9 |
| 20260506185830 | 59 | 35 | 0.0 | 1.7 | 0.00 | 0.00 | 0.00 | 76 | 1020.9 |
| 20260506185329 | 60 | 18 | 0.0 | 1.7 | 0.00 | 0.00 | 0.00 | 74 | 1020.9 |
| 20260506184835 | 60 | 18 | 0.0 | 1.7 | 0.00 | 0.00 | 0.00 | 76 | 1020.8 |
| 20260506184339 | 60 | 18 | 0.0 | 1.7 | 0.00 | 0.00 | 0.00 | 76 | 1020.8 |
| 20260506183839 | 59 | 33 | 0.0 | 1.7 | 0.00 | 0.00 | 0.00 | 76 | 1020.9 |
| 20260506183341 | 59 | 93 | 0.0 | 1.7 | 0.00 | 0.00 | 0.00 | 78 | 1020.9 |
| 20260506182841 | 59 | 93 | 0.9 | 1.7 | 0.00 | 0.00 | 0.00 | 78 | 1020.9 |
| 20260506182400 | 59 | 75 | 0.9 | 1.7 | 0.00 | 0.00 | 0.00 | 76 | 1020.7 |
| 20260506181838 | 58 | 130 | 0.0 | 1.7 | 0.00 | 0.00 | 0.00 | 76 | 1020.7 |
| 20260506181341 | 58 | 4 | 0.0 | 1.7 | 0.00 | 0.00 | 0.00 | 75 | 1020.8 |
| 20260506180842 | 58 | 294 | 0.0 | 1.7 | 0.00 | 0.00 | 0.00 | 75 | 1020.8 |
| 20260506180348 | 59 | 282 | 0.0 | 1.7 | 0.00 | 0.00 | 0.00 | 76 | 1020.8 |
| 20260506175827 | 59 | 286 | 0.0 | 1.7 | 0.00 | 0.00 | 0.00 | 76 | 1020.9 |
| 20260506175351 | 59 | 283 | 0.0 | 1.7 | 0.00 | 0.00 | 0.00 | 77 | 1020.8 |
| 20260506174836 | 59 | 272 | 0.9 | 1.7 | 0.00 | 0.00 | 0.00 | 76 | 1020.7 |
| 20260506174336 | 58 | 302 | 0.0 | 1.7 | 0.00 | 0.00 | 0.00 | 76 | 1020.7 |
| 20260506173835 | 59 | 302 | 0.0 | 1.7 | 0.00 | 0.00 | 0.00 | 77 | 1020.7 |
| 20260506173342 | 59 | 302 | 0.0 | 1.7 | 0.00 | 0.00 | 0.00 | 76 | 1020.6 |
| 20260506172901 | 59 | 302 | 0.0 | 1.7 | 0.00 | 0.00 | 0.00 | 77 | 1020.6 |
| 20260506172400 | 59 | 291 | 0.0 | 1.7 | 0.00 | 0.00 | 0.00 | 76 | 1020.6 |
| 20260506171838 | 59 | 282 | 0.0 | 1.7 | 0.00 | 0.00 | 0.00 | 76 | 1020.5 |
| 20260506171341 | 58 | 282 | 0.0 | 1.7 | 0.00 | 0.00 | 0.00 | 77 | 1020.5 |
| 20260506170842 | 58 | 282 | 0.0 | 1.7 | 0.00 | 0.00 | 0.00 | 77 | 1020.5 |
| 20260506170341 | 58 | 282 | 0.0 | 1.7 | 0.00 | 0.00 | 0.00 | 77 | 1020.5 |
| 20260506165840 | 58 | 270 | 0.0 | 1.7 | 0.00 | 0.00 | 0.00 | 78 | 1020.6 |
| 20260506165340 | 57 | 270 | 0.0 | 1.7 | 0.00 | 0.00 | 0.00 | 78 | 1020.5 |
| 20260506164838 | 57 | 305 | 0.0 | 1.7 | 0.00 | 0.00 | 0.00 | 78 | 1020.5 |
| 20260506164339 | 57 | 305 | 0.0 | 1.7 | 0.00 | 0.00 | 0.00 | 78 | 1020.6 |
| 20260506163843 | 57 | 305 | 0.9 | 1.7 | 0.00 | 0.00 | 0.00 | 78 | 1020.6 |
| 20260506163347 | 57 | 284 | 0.0 | 1.7 | 0.00 | 0.00 | 0.00 | 78 | 1020.6 |
| 20260506162846 | 57 | 262 | 0.9 | 1.7 | 0.00 | 0.00 | 0.00 | 77 | 1020.5 |
| 20260506162326 | 57 | 272 | 0.9 | 1.7 | 0.00 | 0.00 | 0.00 | 79 | 1020.5 |
| 20260506161830 | 57 | 272 | 0.0 | 1.7 | 0.00 | 0.00 | 0.00 | 78 | 1020.6 |
| 20260506161334 | 57 | 272 | 0.0 | 1.7 | 0.00 | 0.00 | 0.00 | 78 | 1020.4 |
| 20260506160834 | 57 | 270 | 0.0 | 1.7 | 0.00 | 0.00 | 0.00 | 78 | 1020.3 |
| 20260506160335 | 57 | 290 | 0.0 | 1.7 | 0.00 | 0.00 | 0.00 | 78 | 1020.3 |
| 20260506155834 | 58 | 290 | 0.0 | 1.7 | 0.00 | 0.00 | 0.00 | 78 | 1020.3 |
| 20260506155338 | 58 | 290 | 0.9 | 1.7 | 0.00 | 0.00 | 0.00 | 79 | 1020.0 |
| 20260506154900 | 57 | 91 | 0.0 | 1.7 | 0.00 | 0.00 | 0.00 | 77 | 1019.9 |
| 20260506154405 | 58 | 64 | 0.0 | 1.7 | 0.00 | 0.00 | 0.00 | 80 | 1019.7 |
| 20260506153828 | 56 | 64 | 0.9 | 1.7 | 0.00 | 0.00 | 0.00 | 80 | 1019.8 |
| 20260506153351 | 56 | 97 | 0.9 | 1.7 | 0.00 | 0.00 | 0.00 | 80 | 1019.9 |
| 20260506152829 | 55 | 317 | 0.0 | 1.7 | 0.00 | 0.00 | 0.00 | 83 | 1020.0 |
| 20260506152330 | 55 | 316 | 0.0 | 1.7 | 0.00 | 0.00 | 0.00 | 82 | 1020.1 |
| 20260506151830 | 55 | 316 | 0.0 | 1.7 | 0.00 | 0.00 | 0.00 | 82 | 1020.4 |
| 20260506151330 | 55 | 316 | 0.0 | 1.7 | 0.00 | 0.00 | 0.00 | 82 | 1020.5 |
| 20260506150836 | 55 | 314 | 0.9 | 1.7 | 0.00 | 0.00 | 0.00 | 82 | 1020.5 |
| 20260506150340 | 55 | 314 | 0.0 | 1.7 | 0.00 | 0.00 | 0.00 | 83 | 1020.5 |
| 20260506145847 | 55 | 302 | 0.0 | 1.7 | 0.00 | 0.00 | 0.00 | 83 | 1020.5 |
| 20260506145331 | 55 | 302 | 0.0 | 1.7 | 0.00 | 0.00 | 0.00 | 83 | 1020.5 |
| 20260506144837 | 55 | 302 | 0.9 | 1.7 | 0.00 | 0.00 | 0.00 | 83 | 1020.5 |
| 20260506144337 | 55 | 315 | 0.0 | 1.7 | 0.00 | 0.00 | 0.00 | 83 | 1020.2 |
| 20260506143857 | 55 | 313 | 0.9 | 1.7 | 0.00 | 0.00 | 0.00 | 83 | 1020.2 |
| 20260506143336 | 54 | 313 | 0.0 | 1.7 | 0.00 | 0.00 | 0.00 | 83 | 1020.3 |
| 20260506142855 | 54 | 315 | 0.9 | 1.7 | 0.00 | 0.00 | 0.00 | 84 | 1020.2 |
| 20260506142341 | 54 | 315 | 0.0 | 1.7 | 0.00 | 0.00 | 0.00 | 83 | 1020.1 |
| 20260506141901 | 54 | 315 | 0.9 | 1.7 | 0.00 | 0.00 | 0.00 | 84 | 1019.9 |
| 20260506141340 | 54 | 309 | 0.0 | 1.7 | 0.00 | 0.00 | 0.00 | 84 | 1019.8 |
| 20260506140839 | 54 | 309 | 0.0 | 1.7 | 0.00 | 0.00 | 0.00 | 84 | 1019.7 |
| 20260506140340 | 54 | 309 | 0.0 | 1.7 | 0.00 | 0.00 | 0.00 | 84 | 1019.7 |
| 20260506135838 | 54 | 309 | 0.0 | 1.7 | 0.00 | 0.00 | 0.00 | 84 | 1019.7 |
| 20260506135336 | 54 | 309 | 0.0 | 1.7 | 0.00 | 0.00 | 0.00 | 84 | 1019.7 |
| 20260506134836 | 54 | 308 | 0.0 | 1.7 | 0.00 | 0.00 | 0.00 | 84 | 1019.6 |
| 20260506134342 | 54 | 298 | 0.0 | 1.7 | 0.00 | 0.00 | 0.00 | 85 | 1019.6 |
| 20260506133841 | 54 | 292 | 0.0 | 1.7 | 0.00 | 0.00 | 0.00 | 84 | 1019.5 |
| 20260506133345 | 54 | 308 | 0.0 | 1.7 | 0.00 | 0.00 | 0.00 | 85 | 1019.5 |
| 20260506132844 | 54 | 314 | 0.0 | 1.7 | 0.00 | 0.00 | 0.00 | 85 | 1019.5 |
| 20260506132404 | 54 | 314 | 0.0 | 1.7 | 0.00 | 0.00 | 0.00 | 85 | 1019.5 |
| 20260506131824 | 54 | 314 | 0.9 | 1.7 | 0.00 | 0.00 | 0.00 | 84 | 1019.4 |
| 20260506131351 | 54 | 315 | 0.0 | 1.7 | 0.00 | 0.00 | 0.00 | 85 | 1019.3 |
| 20260506130830 | 54 | 315 | 0.0 | 1.7 | 0.00 | 0.00 | 0.00 | 85 | 1019.2 |
| 20260506130349 | 55 | 315 | 0.0 | 1.7 | 0.00 | 0.00 | 0.00 | 84 | 1019.1 |
| 20260506125848 | 55 | 315 | 0.0 | 1.7 | 0.00 | 0.00 | 0.00 | 84 | 1019.1 |
| 20260506125328 | 55 | 315 | 0.0 | 1.7 | 0.00 | 0.00 | 0.00 | 85 | 1019.1 |
| 20260506124829 | 55 | 315 | 0.0 | 1.7 | 0.00 | 0.00 | 0.00 | 85 | 1019.0 |
| 20260506124328 | 55 | 315 | 0.0 | 1.7 | 0.00 | 0.00 | 0.00 | 84 | 1018.9 |
| 20260506123829 | 55 | 315 | 0.0 | 1.7 | 0.00 | 0.00 | 0.00 | 84 | 1018.9 |
| 20260506123333 | 55 | 314 | 0.0 | 1.7 | 0.00 | 0.00 | 0.00 | 84 | 1018.9 |
| 20260506122835 | 55 | 314 | 0.0 | 1.7 | 0.00 | 0.00 | 0.00 | 84 | 1018.9 |
| 20260506122335 | 55 | 314 | 0.0 | 1.7 | 0.00 | 0.00 | 0.00 | 84 | 1018.9 |
| 20260506121834 | 55 | 314 | 0.0 | 1.7 | 0.00 | 0.00 | 0.00 | 84 | 1018.9 |
| 20260506121338 | 55 | 314 | 0.0 | 1.7 | 0.00 | 0.00 | 0.00 | 83 | 1018.9 |
| 20260506120837 | 55 | 314 | 0.9 | 1.7 | 0.00 | 0.00 | 0.00 | 84 | 1018.9 |
| 20260506120359 | 55 | 317 | 0.0 | 1.7 | 0.00 | 0.00 | 0.00 | 84 | 1018.9 |
| 20260506115859 | 55 | 317 | 0.0 | 1.7 | 0.00 | 0.00 | 0.00 | 83 | 1018.9 |
| 20260506115340 | 55 | 317 | 0.0 | 1.7 | 0.00 | 0.00 | 0.00 | 83 | 1018.8 |
| 20260506114841 | 55 | 317 | 0.0 | 1.7 | 0.00 | 0.00 | 0.00 | 83 | 1018.8 |
| 20260506114344 | 55 | 317 | 0.0 | 1.7 | 0.00 | 0.00 | 0.00 | 83 | 1018.7 |
| 20260506113825 | 55 | 317 | 0.0 | 1.7 | 0.00 | 0.00 | 0.00 | 83 | 1018.7 |
| 20260506113348 | 55 | 321 | 0.0 | 1.7 | 0.00 | 0.00 | 0.00 | 83 | 1018.6 |
| 20260506112848 | 55 | 321 | 0.0 | 1.7 | 0.00 | 0.00 | 0.00 | 83 | 1018.6 |
| 20260506112347 | 55 | 321 | 0.0 | 1.7 | 0.00 | 0.00 | 0.00 | 83 | 1018.6 |
| 20260506111830 | 55 | 300 | 0.0 | 1.7 | 0.00 | 0.00 | 0.00 | 83 | 1018.7 |
| 20260506111352 | 55 | 316 | 0.0 | 1.7 | 0.00 | 0.00 | 0.00 | 83 | 1018.6 |
| 20260506110850 | 55 | 318 | 0.0 | 1.7 | 0.00 | 0.00 | 0.00 | 83 | 1018.5 |
| 20260506110349 | 55 | 318 | 0.0 | 1.7 | 0.00 | 0.00 | 0.00 | 83 | 1018.4 |
| 20260506105848 | 55 | 318 | 0.0 | 1.7 | 0.00 | 0.00 | 0.00 | 83 | 1018.4 |
| 20260506105408 | 55 | 318 | 0.0 | 1.7 | 0.00 | 0.00 | 0.00 | 83 | 1018.2 |
| 20260506104846 | 55 | 318 | 0.0 | 1.7 | 0.00 | 0.00 | 0.00 | 83 | 1018.2 |
| 20260506104326 | 55 | 318 | 0.0 | 1.7 | 0.00 | 0.00 | 0.00 | 83 | 1018.2 |
| 20260506103828 | 55 | 318 | 0.0 | 1.7 | 0.00 | 0.00 | 0.00 | 83 | 1018.1 |
| 20260506103351 | 55 | 318 | 0.0 | 1.7 | 0.00 | 0.00 | 0.00 | 83 | 1018.1 |
| 20260506102833 | 55 | 317 | 0.0 | 1.7 | 0.00 | 0.00 | 0.00 | 83 | 1018.0 |
| 20260506102334 | 55 | 318 | 0.0 | 1.7 | 0.00 | 0.00 | 0.00 | 83 | 1018.0 |
| 20260506101840 | 55 | 318 | 0.0 | 1.7 | 0.00 | 0.00 | 0.00 | 83 | 1017.8 |
| 20260506101338 | 56 | 318 | 0.0 | 1.7 | 0.00 | 0.00 | 0.00 | 83 | 1017.8 |
| 20260506100841 | 56 | 318 | 0.0 | 1.7 | 0.00 | 0.00 | 0.00 | 83 | 1017.7 |
| 20260506100345 | 56 | 318 | 0.0 | 1.7 | 0.00 | 0.00 | 0.00 | 83 | 1017.7 |
| 20260506095842 | 56 | 318 | 0.0 | 1.7 | 0.00 | 0.00 | 0.00 | 83 | 1017.7 |